Total_Precipitation_Accumulation
0.52 0.43 0.54 0.62 0.56 0.60 0.87 0.85 0.77 0.46 0.42 0.45 0.43 0.46 0.50 0.54 0.53 0.51 0.53 0.61 0.77 0.89 0.89 0.90 0.92 0.95 0.93 0.96 1.09 1.17 1.15 1.26 1.35 1.47 1.56 1.52 1.51 1.55 1.63 1.71 1.71 1.73 1.74 1.67
0.54 0.34 0.43 0.51 0.42 0.44 0.50 0.47 0.44 0.32 0.36 0.40 0.40 0.38 0.40 0.41 0.46 0.50 0.51 0.57 0.64 0.74 0.82 0.93 1.01 1.03 1.01 0.98 1.04 1.16 1.15 1.21 1.26 1.41 1.54 1.52 1.46 1.53 1.66 1.76 1.73 1.70 1.72 1.70
0.91 0.39 0.69 0.77 0.50 0.45 0.48 0.46 0.42 0.48 0.48 0.40 0.36 0.38 0.44 0.45 0.47 0.51 0.51 0.53 0.55 0.66 0.80 0.90 1.00 1.03 1.04 1.02 1.05 1.15 1.18 1.20 1.26 1.40 1.47 1.52 1.49 1.52 1.63 1.74 1.75 1.72 1.69 1.68
1.50 1.00 1.32 0.72 0.39 0.38 0.44 0.47 0.45 0.45 0.41 0.41 0.44 0.46 0.51 0.51 0.54 0.54 0.55 0.57 0.57 0.65 0.78 0.82 0.90 0.96 0.99 0.96 1.09 1.18 1.19 1.19 1.26 1.36 1.40 1.52 1.54 1.53 1.65 1.72 1.66 1.66 1.66 1.63
2.04 1.41 0.74 0.41 0.37 0.49 0.59 0.60 0.48 0.39 0.31 0.31 0.35 0.41 0.51 0.47 0.51 0.56 0.56 0.60 0.62 0.66 0.75 0.74 0.82 0.89 0.95 0.92 1.01 1.12 1.18 1.13 1.19 1.30 1.37 1.45 1.50 1.55 1.63 1.71 1.66 1.59 1.58 1.62
2.25 1.63 0.80 0.51 0.33 0.39 0.54 0.76 0.46 0.36 0.36 0.35 0.40 0.58 0.58 0.51 0.50 0.49 0.48 0.53 0.62 0.64 0.67 0.70 0.75 0.81 0.87 0.92 0.96 1.08 1.13 1.04 1.11 1.21 1.29 1.40 1.45 1.51 1.57 1.58 1.59 1.59 1.55 1.56
1.80 1.47 0.63 0.40 0.32 0.38 0.81 0.91 0.49 0.43 0.45 0.47 0.58 0.67 0.58 0.53 0.54 0.55 0.53 0.54 0.58 0.59 0.64 0.70 0.75 0.77 0.82 0.90 0.97 1.04 1.11 1.03 1.08 1.14 1.22 1.34 1.44 1.44 1.51 1.55 1.55 1.60 1.60 1.58
1.33 1.53 0.79 0.40 0.45 0.79 0.93 0.55 0.46 0.43 0.43 0.46 0.47 0.44 0.43 0.46 0.54 0.62 0.60 0.56 0.59 0.61 0.63 0.67 0.70 0.75 0.78 0.83 0.90 1.00 1.06 1.04 1.11 1.16 1.19 1.26 1.37 1.38 1.40 1.51 1.57 1.59 1.62 1.67
1.10 0.94 0.63 0.53 0.65 0.69 0.59 0.51 0.42 0.41 0.41 0.45 0.43 0.42 0.46 0.49 0.55 0.64 0.66 0.64 0.64 0.66 0.64 0.66 0.70 0.75 0.83 0.85 0.88 1.00 1.05 1.04 1.10 1.19 1.23 1.26 1.30 1.33 1.37 1.45 1.53 1.56 1.55 1.56
0.75 0.54 0.42 0.41 0.42 0.41 0.40 0.42 0.39 0.39 0.41 0.44 0.46 0.43 0.49 0.51 0.56 0.62 0.65 0.69 0.71 0.72 0.70 0.70 0.72 0.77 0.86 0.90 0.90 1.00 1.03 1.03 1.09 1.15 1.21 1.26 1.24 1.19 1.22 1.33 1.47 1.49 1.49 1.44
0.58 0.39 0.37 0.34 0.34 0.35 0.33 0.30 0.30 0.31 0.33 0.38 0.42 0.45 0.50 0.54 0.58 0.65 0.67 0.70 0.72 0.75 0.77 0.78 0.75 0.81 0.88 0.92 0.92 1.00 0.98 0.96 1.03 1.06 1.15 1.26 1.25 1.20 1.20 1.20 1.40 1.58 1.53 1.48
0.57 0.43 0.52 0.42 0.35 0.35 0.34 0.32 0.34 0.34 0.32 0.30 0.36 0.43 0.47 0.50 0.54 0.64 0.69 0.70 0.71 0.73 0.77 0.83 0.82 0.84 0.90 0.94 0.94 0.96 0.97 0.94 0.98 1.02 1.07 1.16 1.20 1.26 1.39 1.37 1.40 1.42 1.44 1.53
0.46 0.36 0.37 0.35 0.31 0.32 0.34 0.34 0.33 0.34 0.36 0.34 0.33 0.38 0.44 0.48 0.53 0.60 0.66 0.70 0.73 0.78 0.81 0.85 0.87 0.89 0.93 0.94 0.96 0.99 0.99 0.97 0.98 1.01 1.04 1.11 1.10 1.10 1.27 1.43 1.48 1.43 1.37 1.40
0.29 0.30 0.29 0.26 0.29 0.30 0.32 0.31 0.29 0.29 0.32 0.33 0.34 0.35 0.38 0.43 0.47 0.56 0.69 0.74 0.75 0.76 0.79 0.83 0.86 0.92 0.98 1.00 1.01 1.01 1.01 1.07 1.07 1.03 1.06 1.12 1.10 1.04 1.06 1.15 1.27 1.36 1.39 1.40
0.23 0.27 0.29 0.25 0.25 0.28 0.32 0.31 0.29 0.30 0.32 0.32 0.32 0.33 0.36 0.41 0.48 0.60 0.70 0.73 0.73 0.75 0.79 0.83 0.85 0.93 0.98 1.05 1.08 1.02 1.04 1.09 1.10 1.08 1.10 1.15 1.13 1.10 1.09 1.09 1.11 1.17 1.25 1.36
0.24 0.23 0.23 0.24 0.26 0.28 0.31 0.33 0.34 0.36 0.37 0.37 0.36 0.37 0.39 0.41 0.45 0.54 0.64 0.70 0.73 0.77 0.82 0.83 0.88 0.97 1.02 1.08 1.11 1.08 1.09 1.21 1.22 1.16 1.14 1.19 1.21 1.21 1.18 1.16 1.17 1.15 1.18 1.28
0.30 0.27 0.25 0.26 0.26 0.27 0.33 0.37 0.38 0.38 0.39 0.39 0.39 0.40 0.39 0.40 0.40 0.46 0.56 0.66 0.72 0.77 0.80 0.85 0.92 0.95 1.00 1.08 1.13 1.11 1.12 1.19 1.29 1.21 1.16 1.22 1.29 1.28 1.22 1.22 1.22 1.18 1.14 1.25
0.30 0.30 0.29 0.29 0.29 0.29 0.31 0.35 0.37 0.36 0.38 0.39 0.37 0.36 0.38 0.41 0.44 0.48 0.55 0.60 0.63 0.64 0.72 0.83 0.92 0.97 0.99 1.07 1.14 1.13 1.12 1.17 1.21 1.20 1.19 1.26 1.33 1.31 1.28 1.27 1.25 1.23 1.19 1.24
0.22 0.23 0.24 0.24 0.24 0.26 0.29 0.33 0.34 0.32 0.33 0.34 0.34 0.37 0.41 0.43 0.46 0.49 0.50 0.51 0.56 0.65 0.74 0.84 0.97 0.93 0.94 1.04 1.16 1.15 1.14 1.18 1.21 1.22 1.19 1.30 1.35 1.31 1.28 1.27 1.26 1.22 1.24 1.24
0.21 0.22 0.23 0.23 0.22 0.24 0.27 0.28 0.30 0.29 0.30 0.32 0.34 0.37 0.41 0.44 0.46 0.47 0.49 0.51 0.61 0.76 0.80 0.89 0.93 0.93 0.94 0.97 1.08 1.12 1.18 1.20 1.23 1.24 1.21 1.22 1.27 1.32 1.30 1.28 1.27 1.26 1.28 1.30
0.24 0.23 0.24 0.25 0.24 0.24 0.27 0.28 0.30 0.31 0.30 0.34 0.37 0.41 0.43 0.43 0.45 0.49 0.53 0.56 0.59 0.70 0.79 0.90 0.93 0.97 1.00 1.04 1.11 1.14 1.21 1.23 1.25 1.28 1.27 1.25 1.25 1.29 1.28 1.28 1.28 1.27 1.28 1.30
0.30 0.29 0.29 0.29 0.29 0.28 0.28 0.29 0.31 0.34 0.35 0.38 0.41 0.43 0.43 0.42 0.44 0.48 0.54 0.62 0.66 0.79 0.86 0.88 0.95 1.10 1.20 1.20 1.10 1.13 1.18 1.20 1.24 1.27 1.29 1.26 1.26 1.29 1.27 1.27 1.30 1.28 1.24 1.26
0.34 0.35 0.36 0.35 0.33 0.32 0.30 0.31 0.34 0.38 0.42 0.43 0.45 0.46 0.47 0.48 0.50 0.55 0.60 0.61 0.68 0.85 0.92 0.96 1.12 1.28 1.33 1.17 1.09 1.12 1.16 1.18 1.20 1.26 1.30 1.28 1.27 1.29 1.29 1.27 1.28 1.27 1.26 1.23
0.38 0.39 0.41 0.41 0.38 0.36 0.36 0.37 0.38 0.43 0.48 0.50 0.51 0.54 0.56 0.55 0.54 0.55 0.64 0.72 0.81 0.93 0.97 1.07 1.22 1.32 1.32 1.18 1.11 1.14 1.18 1.18 1.19 1.24 1.28 1.29 1.31 1.31 1.29 1.28 1.29 1.24 1.19 1.17
0.42 0.43 0.42 0.43 0.45 0.46 0.46 0.46 0.46 0.49 0.52 0.53 0.54 0.56 0.60 0.62 0.65 0.66 0.68 0.75 0.86 0.94 0.98 1.06 1.16 1.24 1.23 1.19 1.14 1.17 1.20 1.23 1.27 1.32 1.32 1.31 1.31 1.31 1.29 1.25 1.24 1.22 1.19 1.15
0.45 0.47 0.48 0.50 0.53 0.55 0.55 0.54 0.56 0.57 0.57 0.58 0.58 0.59 0.63 0.67 0.70 0.73 0.76 0.80 0.87 0.94 0.96 1.00 1.07 1.15 1.17 1.18 1.17 1.18 1.20 1.26 1.30 1.28 1.26 1.27 1.25 1.26 1.25 1.22 1.17 1.16 1.15 1.13
0.52 0.52 0.52 0.53 0.56 0.60 0.62 0.63 0.65 0.67 0.66 0.66 0.69 0.68 0.68 0.72 0.76 0.80 0.82 0.86 0.91 0.95 0.98 1.01 1.06 1.12 1.18 1.20 1.23 1.24 1.23 1.22 1.23 1.23 1.25 1.24 1.22 1.22 1.21 1.18 1.17 1.14 1.12 1.10